DateTimeUTC,F1_A11,F1_S11,BsB_S11,BsG_S11,BsR_S11,BbsB_S11,BbsG_S11,BbsR_S11,BaB_A11,BaG_A11,BaR_A11,Tu_S11,T_S11,Uu_S11,U_S11,P_S11,T1_A11
2021-08-23T17:00:00Z,00000200,20000000,,,,,,,-000.32,-000.49,-000.29,19.9,26.6,08.2,05.5,0676.5,31.1
2021-08-23T17:01:00Z,00000200,20000000,,,,,,,0000.23,0000.38,0000.03,19.9,26.6,08.2,05.5,0676.5,31.1
2021-08-23T17:02:00Z,00000200,20000000,,,,,,,0000.23,-000.19,0000.20,19.9,26.6,08.2,05.5,0676.5,31.1
2021-08-23T17:03:00Z,00000200,60000000,,,,,,,0000.55,0001.06,0000.65,19.9,26.6,08.2,05.5,0676.5,31.1
2021-08-23T17:04:00Z,00000200,40000000,0004.73,0003.03,0002.01,0001.00,0000.72,0000.42,0000.69,0000.34,0000.59,20.0,26.5,08.6,05.8,0677.5,31.1
2021-08-23T17:05:00Z,00000200,00000000,0003.74,0003.50,0002.22,-000.02,0000.44,0000.43,0000.98,0001.07,0000.61,20.1,26.4,08.5,05.8,0677.5,31.1
2021-08-23T17:06:00Z,00000200,00000000,0004.14,0003.59,0002.21,0000.66,0000.33,0000.39,0000.83,0001.00,0000.83,20.1,26.4,08.4,05.7,0677.5,31.1
2021-08-23T17:07:00Z,00000200,00000000,0005.01,0003.49,0002.06,0000.26,0000.68,0000.22,0000.98,0000.38,0000.39,20.1,26.4,08.5,05.8,0677.5,31.1
2021-08-23T17:08:00Z,00000200,00000000,0004.95,0003.86,0002.75,0000.45,0000.38,0000.79,0001.10,0001.24,0001.02,20.1,26.4,08.6,05.9,0677.5,31.1
2021-08-23T17:09:00Z,00000200,00000000,0004.61,0003.82,0003.05,0000.38,0000.47,0000.63,0001.01,0000.70,0001.02,20.1,26.4,08.7,05.9,0677.6,31.1
2021-08-23T17:10:00Z,00000200,00000000,0004.46,0003.92,0002.34,0000.77,0000.36,0000.40,0001.09,0001.24,0000.62,20.1,26.4,08.7,05.9,0677.6,31.1
2021-08-23T17:11:00Z,00000200,00000000,0004.40,0003.97,0002.57,0000.61,0000.48,0000.27,0001.07,0001.08,0000.77,20.1,26.4,08.7,05.9,0677.6,31.1
2021-08-23T17:12:00Z,00000200,00000000,0004.25,0003.49,0002.53,0000.17,0000.59,0000.62,0000.67,0000.77,0000.88,20.1,26.4,08.7,05.9,0677.6,31.1
2021-08-23T17:13:00Z,00000200,00000000,0005.38,0003.84,0002.73,0000.33,0000.27,0000.42,0001.31,0000.90,0000.50,20.1,26.4,08.6,05.9,0677.6,31.1
2021-08-23T17:14:00Z,00000200,00000000,0004.66,0003.99,0002.81,0000.27,0000.49,0000.71,0001.02,0001.13,0000.69,20.1,26.4,08.7,05.9,0677.6,31.1
2021-08-23T17:15:00Z,00000200,00000000,0004.91,0003.67,0002.72,0000.74,0000.53,0000.49,0001.09,0000.91,0001.31,20.1,26.4,08.6,05.9,0677.6,31.1
2021-08-23T17:16:00Z,00000200,00000000,0004.81,0003.94,0002.90,0000.40,0000.45,0000.37,0000.99,0000.94,0000.32,20.1,26.4,08.8,06.0,0677.6,31.1
2021-08-23T17:17:00Z,00000200,00000000,0004.94,0004.21,0002.69,0000.69,0000.34,0000.65,0001.13,0000.86,0000.73,20.1,26.4,08.9,06.1,0677.6,31.1
2021-08-23T17:18:00Z,00000200,00000000,0005.69,0003.82,0002.66,-000.05,0000.75,0000.42,0000.81,0000.96,0000.77,20.1,26.4,08.8,06.0,0677.6,31.1
2021-08-23T17:19:00Z,00000200,00000000,0005.39,0004.22,0002.93,0001.14,0000.38,0000.68,0001.23,0001.48,0001.06,20.1,26.4,08.8,06.0,0677.6,31.1
2021-08-23T17:20:00Z,00000200,00000000,0004.81,0003.99,0002.90,0000.16,0000.57,0000.10,0001.03,0000.63,0001.05,20.1,26.4,08.8,06.0,0677.7,31.1
2021-08-23T17:21:00Z,00000200,00000000,0004.17,0004.06,0003.10,0000.73,0000.68,0000.80,0001.31,0001.12,0000.42,20.1,26.4,08.8,06.0,0677.7,31.1
2021-08-23T17:22:00Z,00000200,00000000,0004.57,0003.90,0002.85,0000.53,0000.50,0000.60,0001.19,0000.75,0000.93,20.1,26.4,08.8,06.0,0677.6,31.1
2021-08-23T17:23:00Z,00000200,00000000,0005.09,0004.49,0002.60,0000.73,0000.65,0000.45,0000.97,0001.19,0000.80,20.1,26.4,08.9,06.1,0677.7,31.1
2021-08-23T17:24:00Z,00000200,00000000,0005.24,0004.07,0002.57,-000.12,0000.20,0000.39,0001.27,0001.11,0001.12,20.1,26.4,09.0,06.1,0677.7,31.1
2021-08-23T17:25:00Z,00000200,00000000,0005.27,0004.26,0002.60,0000.42,0000.48,0000.70,0000.76,0001.11,0000.93,20.1,26.4,09.0,06.1,0677.7,31.1
2021-08-23T17:26:00Z,00000200,00000000,0005.21,0003.98,0002.72,0000.33,0000.51,0000.65,0001.16,0001.05,0000.62,20.1,26.4,08.9,06.1,0677.7,31.1
2021-08-23T17:27:00Z,00000200,00000000,0005.80,0004.02,0002.64,0000.86,0000.33,0000.67,0001.47,0001.03,0000.96,20.1,26.4,09.0,06.1,0677.7,31.1
2021-08-23T17:28:00Z,00000200,00000000,0004.93,0004.48,0002.74,0000.63,0000.75,0000.23,0000.55,0000.81,0000.64,20.1,26.3,08.9,06.1,0677.7,31.1
2021-08-23T17:29:00Z,00000200,00000000,0005.31,0003.91,0003.02,0000.16,0000.58,0000.60,0001.39,0001.37,0000.89,20.1,26.4,08.8,06.0,0677.7,31.1
2021-08-23T17:30:00Z,00000200,00000000,0005.29,0003.93,0003.07,0000.61,0000.51,0000.66,0001.08,0000.43,0000.59,20.1,26.4,08.9,06.1,0677.7,31.1
2021-08-23T17:31:00Z,00000200,00000000,0005.27,0004.77,0003.26,0000.44,0000.38,0000.48,0001.22,0001.46,0000.84,20.1,26.4,08.9,06.1,0677.7,31.1
2021-08-23T17:32:00Z,00000200,00000000,0005.55,0004.64,0003.00,0000.92,0000.79,0000.62,0001.05,0000.99,0000.94,20.1,26.4,09.0,06.1,0677.7,31.1
2021-08-23T17:33:00Z,00000200,00000000,0005.11,0004.55,0002.87,0000.16,0000.27,0000.86,0001.36,0001.18,0001.07,20.1,26.4,08.9,06.1,0677.7,31.1
2021-08-23T17:34:00Z,00000200,00000000,0005.36,0004.58,0002.90,0000.51,0000.48,0000.53,0000.83,0000.90,0000.90,20.1,26.4,08.9,06.1,0677.7,31.1
2021-08-23T17:35:00Z,00000200,00000000,0005.73,0004.53,0003.14,0000.57,0000.42,0000.22,0001.43,0001.27,0000.73,20.1,26.4,08.9,06.1,0677.8,31.1
2021-08-23T17:36:00Z,00000200,00000000,0005.73,0004.46,0002.77,0000.29,0000.69,0000.57,0001.23,0001.17,0000.81,20.1,26.4,09.0,06.1,0677.7,31.1
2021-08-23T17:37:00Z,00000200,00000000,0004.53,0004.32,0002.71,0000.66,0000.68,0000.69,0000.82,0000.88,0000.88,20.1,26.4,08.8,06.0,0677.7,31.1
2021-08-23T17:38:00Z,00000200,00000000,0005.21,0004.49,0002.49,0000.34,0000.81,0000.18,0001.39,0000.89,0001.01,20.1,26.4,08.8,06.0,0677.8,31.1
2021-08-23T17:39:00Z,00000200,00000000,0004.61,0004.31,0002.99,0000.36,0000.32,0000.89,0000.95,0001.34,0000.77,20.1,26.4,08.9,06.0,0677.8,31.1
2021-08-23T17:40:00Z,00000200,00000000,0004.65,0004.17,0002.81,0001.11,0000.57,0000.37,0001.19,0001.07,0000.84,20.1,26.4,08.9,06.1,0677.8,31.1
2021-08-23T17:41:00Z,00000200,00000000,0005.37,0004.23,0002.83,0001.00,0000.54,0000.19,0001.07,0000.93,0000.87,20.0,26.4,08.8,06.0,0677.8,31.1
2021-08-23T17:42:00Z,00000200,00000000,0005.05,0004.72,0002.98,0000.55,0000.47,0000.66,0001.31,0001.32,0001.02,20.0,26.4,08.8,06.0,0677.7,31.1
2021-08-23T17:43:00Z,00000200,00000000,0005.43,0004.42,0003.16,0000.53,0000.48,0000.65,0001.27,0000.68,0000.82,20.0,26.3,08.8,06.0,0677.7,31.1
2021-08-23T17:44:00Z,00000200,00000000,0006.14,0004.60,0002.82,0000.18,0000.60,0000.08,0001.15,0001.32,0001.19,20.0,26.4,08.8,06.0,0677.7,31.1
2021-08-23T17:45:00Z,00000200,00000000,0005.44,0003.99,0002.68,0000.45,0000.87,0000.41,0001.00,0001.24,0000.48,20.0,26.3,08.8,06.0,0677.7,31.1
2021-08-23T17:46:00Z,00000200,00000000,0006.01,0004.32,0003.16,0000.69,0000.58,0000.67,0001.12,0001.01,0000.82,20.0,26.4,08.8,06.0,0677.8,31.1
2021-08-23T17:47:00Z,00000200,00000000,0005.68,0004.54,0002.97,0000.83,0000.50,0000.87,0001.26,0000.78,0001.04,20.0,26.4,08.9,06.1,0677.8,31.1
2021-08-23T17:48:00Z,00000200,00000000,0005.39,0004.51,0003.09,0000.11,0000.54,0000.43,0001.10,0001.36,0000.90,20.0,26.4,08.9,06.1,0677.7,31.1
2021-08-23T17:49:00Z,00000200,00000000,0005.38,0004.76,0002.88,0000.97,0000.48,0000.83,0000.88,0001.01,0000.76,20.0,26.3,08.9,06.1,0677.7,31.1
2021-08-23T17:50:00Z,00000200,00000000,0005.82,0004.53,0002.95,0000.53,0000.44,0000.13,0001.41,0000.84,0001.02,20.0,26.3,08.9,06.1,0677.7,31.1
2021-08-23T17:51:00Z,00000200,00000000,0005.36,0004.88,0002.91,0000.39,0000.34,0000.63,0001.16,0001.49,0000.58,20.0,26.3,08.9,06.1,0677.8,31.1
2021-08-23T17:52:00Z,00000200,00000000,0004.57,0004.50,0003.19,-000.02,0000.69,0000.56,0001.31,0001.02,0001.29,20.0,26.3,08.9,06.1,0677.8,31.1
2021-08-23T17:53:00Z,00000200,00000000,0005.68,0005.10,0002.87,0000.86,0000.58,0000.44,0001.37,0001.04,0000.94,20.0,26.3,09.0,06.1,0677.8,31.1
2021-08-23T17:54:00Z,00000200,00000000,0005.56,0004.76,0003.17,0000.78,0000.48,0000.54,0000.99,0001.33,0000.76,20.0,26.3,08.9,06.1,0677.8,31.1
2021-08-23T17:55:00Z,00000200,00000000,0005.68,0004.46,0002.89,0000.52,0000.33,0000.47,0001.38,0001.42,0000.75,20.0,26.3,08.9,06.1,0677.8,31.1
2021-08-23T17:56:00Z,00000200,00000000,0005.06,0004.57,0002.97,0001.14,0000.50,0000.68,0001.02,0000.65,0001.19,20.0,26.3,09.0,06.1,0677.8,31.1
2021-08-23T17:57:00Z,00000200,40000000,,,,,,,0000.44,0000.39,0000.18,20.0,26.3,09.5,06.5,0677.7,31.1
2021-08-23T17:58:00Z,00000200,60000000,,,,,,,-000.21,0000.15,-000.30,19.8,26.4,09.0,06.0,0676.8,31.0
2021-08-23T17:59:00Z,00000200,20000000,,,,,,,0000.14,-000.12,0000.12,19.8,26.5,08.8,05.9,0676.8,31.1
